Time,TemperatureF,DewpointF,PressureIn,WindDirection,WindDirectionDegrees,WindSpeedMPH,WindSpeedGustMPH,Humidity,HourlyPrecipIn,Conditions,Clouds,dailyrainin,SolarRadiationWatts/m^2,SoftwareType,DateUTC
2013-07-08 00:00:00,70.1,60.7,30.22,ESE,115,0.0,0.0,72,0.00,BKN,,0.00,0.0,WeatherDisplay:10.37,2013-07-07 22:00:00,
2013-07-08 00:05:00,69.8,60.8,30.22,ESE,115,0.0,1.2,73,0.00,BKN,,0.00,0.0,WeatherDisplay:10.37,2013-07-07 22:05:00,
2013-07-08 00:10:00,69.6,60.6,30.21,ESE,115,0.0,1.0,73,0.00,BKN,,0.00,0.0,WeatherDisplay:10.37,2013-07-07 22:10:00,
2013-07-08 00:15:00,69.4,60.4,30.22,ESE,115,0.0,0.0,73,0.00,BKN,,0.00,0.0,WeatherDisplay:10.37,2013-07-07 22:15:00,
2013-07-08 00:20:00,69.2,60.6,30.22,ESE,115,0.0,0.0,74,0.00,BKN,,0.00,0.0,WeatherDisplay:10.37,2013-07-07 22:20:00,
2013-07-08 00:25:00,69.1,60.8,30.22,ESE,115,0.0,0.0,75,0.00,BKN,,0.00,0.0,WeatherDisplay:10.37,2013-07-07 22:25:00,
2013-07-08 00:30:00,68.9,60.6,30.22,ESE,115,0.0,0.0,75,0.00,BKN,,0.00,0.0,WeatherDisplay:10.37,2013-07-07 22:30:00,
2013-07-08 00:35:00,68.8,60.6,30.22,ESE,114,0.0,1.2,75,0.00,BKN,,0.00,0.0,WeatherDisplay:10.37,2013-07-07 22:35:00,
2013-07-08 00:40:00,68.6,60.4,30.22,ESE,115,0.0,0.0,75,0.00,BKN,,0.00,0.0,WeatherDisplay:10.37,2013-07-07 22:40:00,
2013-07-08 00:46:00,68.4,60.5,30.22,ESE,115,0.0,0.0,76,0.00,BKN,,0.00,0.0,WeatherDisplay:10.37,2013-07-07 22:46:00,
2013-07-08 00:51:00,68.2,60.3,30.22,ESE,115,0.1,1.2,76,0.00,BKN,,0.00,0.0,WeatherDisplay:10.37,2013-07-07 22:51:00,
2013-07-08 00:56:00,68.2,60.3,30.22,ESE,115,0.0,1.2,76,0.00,BKN,,0.00,0.0,WeatherDisplay:10.37,2013-07-07 22:56:00,
2013-07-08 01:01:00,68.1,60.2,30.22,ESE,114,0.0,0.0,76,0.00,BKN,,0.00,0.0,WeatherDisplay:10.37,2013-07-07 23:01:00,
2013-07-08 01:06:00,68.0,60.2,30.22,ESE,115,0.0,0.0,76,0.00,BKN,,0.00,0.0,WeatherDisplay:10.37,2013-07-07 23:06:00,
2013-07-08 01:11:00,68.0,60.5,30.22,ESE,115,0.0,0.0,77,0.00,BKN,,0.00,0.0,WeatherDisplay:10.37,2013-07-07 23:11:00,
2013-07-08 01:16:00,67.9,60.4,30.22,ESE,115,0.0,0.0,77,0.00,BKN,,0.00,0.0,WeatherDisplay:10.37,2013-07-07 23:16:00,
2013-07-08 01:21:00,67.8,60.3,30.22,ESE,115,0.0,0.0,77,0.00,BKN,,0.00,0.0,WeatherDisplay:10.37,2013-07-07 23:21:00,
2013-07-08 01:26:00,67.6,60.1,30.22,ESE,114,0.0,0.0,77,0.00,BKN,,0.00,0.0,WeatherDisplay:10.37,2013-07-07 23:26:00,
2013-07-08 01:31:00,67.5,60.0,30.22,ESE,115,0.6,2.3,77,0.00,BKN,,0.00,0.0,WeatherDisplay:10.37,2013-07-07 23:31:00,
2013-07-08 01:36:00,67.4,59.6,30.22,ESE,115,0.0,1.2,76,0.00,BKN,,0.00,0.0,WeatherDisplay:10.37,2013-07-07 23:36:00,
2013-07-08 01:41:00,67.5,59.3,30.21,ESE,115,0.0,1.2,75,0.00,BKN,,0.00,0.0,WeatherDisplay:10.37,2013-07-07 23:41:00,
2013-07-08 01:46:00,67.5,59.3,30.21,ESE,115,0.0,0.0,75,0.00,BKN,,0.00,0.0,WeatherDisplay:10.37,2013-07-07 23:46:00,
2013-07-08 01:51:00,67.6,59.4,30.21,ESE,115,0.0,0.0,75,0.00,BKN,,0.00,0.0,WeatherDisplay:10.37,2013-07-07 23:51:00,
2013-07-08 01:56:00,67.5,59.3,30.21,ESE,115,0.0,0.0,75,0.00,BKN,,0.00,0.0,WeatherDisplay:10.37,2013-07-07 23:56:00,
2013-07-08 02:01:00,67.4,59.2,30.21,ESE,115,0.0,0.0,75,0.00,BKN,,0.00,0.0,WeatherDisplay:10.37,2013-07-08 00:01:00,
2013-07-08 02:06:00,67.3,59.1,30.21,ESE,115,0.0,0.0,75,0.00,BKN,,0.00,0.0,WeatherDisplay:10.37,2013-07-08 00:06:00,
2013-07-08 02:11:00,67.1,58.9,30.21,ESE,115,0.0,1.2,75,0.00,BKN,,0.00,0.0,WeatherDisplay:10.37,2013-07-08 00:11:00,
2013-07-08 02:16:00,66.9,59.1,30.21,ESE,115,0.1,1.2,76,0.00,BKN,,0.00,0.0,WeatherDisplay:10.37,2013-07-08 00:16:00,
2013-07-08 02:21:00,66.7,58.9,30.21,ESE,115,0.0,1.2,76,0.00,BKN,,0.00,0.0,WeatherDisplay:10.37,2013-07-08 00:21:00,
2013-07-08 02:26:00,66.5,58.7,30.21,ESE,115,0.0,1.2,76,0.00,BKN,,0.00,0.0,WeatherDisplay:10.37,2013-07-08 00:26:00,
2013-07-08 02:31:00,66.3,58.5,30.21,ESE,115,0.0,0.0,76,0.00,BKN,,0.00,0.0,WeatherDisplay:10.37,2013-07-08 00:31:00,
2013-07-08 02:36:00,66.1,58.3,30.21,ESE,115,0.2,1.2,76,0.00,BKN,,0.00,0.0,WeatherDisplay:10.37,2013-07-08 00:36:00,
2013-07-08 02:41:00,66.0,58.2,30.21,ESE,115,0.0,0.0,76,0.00,BKN,,0.00,0.0,WeatherDisplay:10.37,2013-07-08 00:41:00,
2013-07-08 02:46:00,65.9,58.1,30.21,ESE,115,0.7,2.3,76,0.00,BKN,,0.00,0.0,WeatherDisplay:10.37,2013-07-08 00:46:00,
2013-07-08 02:51:00,65.8,58.0,30.21,ESE,115,0.0,1.2,76,0.00,BKN,,0.00,0.0,WeatherDisplay:10.37,2013-07-08 00:51:00,
2013-07-08 02:56:00,65.8,57.7,30.21,ESE,115,0.2,1.2,75,0.00,BKN,,0.00,0.0,WeatherDisplay:10.37,2013-07-08 00:56:00,
2013-07-08 03:01:00,65.8,57.7,30.21,ESE,115,0.0,2.3,75,0.00,BKN,,0.00,0.0,WeatherDisplay:10.37,2013-07-08 01:01:00,
2013-07-08 03:06:00,65.9,57.4,30.21,ESE,115,0.0,2.3,74,0.00,BKN,,0.00,0.0,WeatherDisplay:10.37,2013-07-08 01:06:00,
2013-07-08 03:11:00,65.9,57.4,30.21,ESE,115,0.1,1.2,74,0.00,BKN,,0.00,0.0,WeatherDisplay:10.37,2013-07-08 01:11:00,
2013-07-08 03:16:00,65.9,57.4,30.21,ESE,115,0.0,1.0,74,0.00,BKN,,0.00,0.0,WeatherDisplay:10.37,2013-07-08 01:16:00,
2013-07-08 03:21:00,65.9,57.4,30.21,ESE,115,0.0,2.3,74,0.00,BKN,,0.00,0.0,WeatherDisplay:10.37,2013-07-08 01:21:00,
2013-07-08 03:26:00,65.9,57.4,30.21,ESE,115,0.0,0.0,74,0.00,BKN,,0.00,0.0,WeatherDisplay:10.37,2013-07-08 01:26:00,
2013-07-08 03:31:00,65.8,57.3,30.21,ESE,115,0.0,0.0,74,0.00,BKN,,0.00,0.0,WeatherDisplay:10.37,2013-07-08 01:31:00,
2013-07-08 03:36:00,65.7,57.6,30.21,ESE,115,0.3,1.2,75,0.00,BKN,,0.00,0.0,WeatherDisplay:10.37,2013-07-08 01:36:00,
2013-07-08 03:41:00,65.6,57.5,30.22,ESE,114,0.0,0.0,75,0.00,BKN,,0.00,0.0,WeatherDisplay:10.37,2013-07-08 01:41:00,
2013-07-08 03:46:00,65.5,57.4,30.21,ESE,115,0.0,0.0,75,0.00,BKN,,0.00,0.0,WeatherDisplay:10.37,2013-07-08 01:46:00,
2013-07-08 03:51:00,65.4,57.6,30.21,ESE,114,0.0,1.2,76,0.00,BKN,,0.00,0.0,WeatherDisplay:10.37,2013-07-08 01:51:00,
2013-07-08 03:56:00,65.3,57.5,30.21,ESE,115,0.0,1.2,76,0.00,BKN,,0.00,0.0,WeatherDisplay:10.37,2013-07-08 01:56:00,
2013-07-08 04:01:00,65.2,57.4,30.21,ESE,115,0.0,0.0,76,0.00,BKN,,0.00,0.0,WeatherDisplay:10.37,2013-07-08 02:01:00,
2013-07-08 04:06:00,65.0,57.6,30.21,ESE,115,0.0,0.0,77,0.00,BKN,,0.00,0.0,WeatherDisplay:10.37,2013-07-08 02:06:00,
2013-07-08 04:11:00,64.9,57.5,30.21,ESE,115,0.2,1.2,77,0.00,BKN,,0.00,0.0,WeatherDisplay:10.37,2013-07-08 02:11:00,
2013-07-08 04:16:00,64.7,57.3,30.21,ESE,115,0.0,1.0,77,0.00,BKN,,0.00,0.0,WeatherDisplay:10.37,2013-07-08 02:16:00,
2013-07-08 04:21:00,64.4,57.0,30.21,ESE,115,0.0,1.2,77,0.00,BKN,,0.00,0.0,WeatherDisplay:10.37,2013-07-08 02:21:00,
2013-07-08 04:26:00,64.2,57.2,30.21,ESE,115,0.0,0.0,78,0.00,BKN,,0.00,0.0,WeatherDisplay:10.37,2013-07-08 02:26:00,
2013-07-08 04:31:00,64.0,57.0,30.21,ESE,115,0.0,1.2,78,0.00,BKN,,0.00,0.0,WeatherDisplay:10.37,2013-07-08 02:31:00,
2013-07-08 04:36:00,63.9,56.9,30.21,ESE,115,0.1,1.2,78,0.00,BKN,,0.00,0.0,WeatherDisplay:10.37,2013-07-08 02:36:00,
2013-07-08 04:41:00,63.7,57.1,30.21,ESE,115,0.5,1.2,79,0.00,BKN,,0.00,0.0,WeatherDisplay:10.37,2013-07-08 02:41:00,
2013-07-08 04:46:00,63.6,57.0,30.21,NNW,327,0.0,2.3,79,0.00,BKN,,0.00,0.0,WeatherDisplay:10.37,2013-07-08 02:46:00,
2013-07-08 04:51:00,63.5,56.9,30.21,NNW,327,0.1,1.0,79,0.00,BKN,,0.00,0.0,WeatherDisplay:10.37,2013-07-08 02:51:00,
2013-07-08 04:56:00,63.5,57.2,30.21,NNW,327,0.0,0.0,80,0.00,BKN,,0.00,0.0,WeatherDisplay:10.37,2013-07-08 02:56:00,
2013-07-08 05:01:00,63.5,57.2,30.21,NNW,327,0.0,0.0,80,0.00,BKN,,0.00,5.0,WeatherDisplay:10.37,2013-07-08 03:01:00,
2013-07-08 05:06:00,63.4,57.1,30.21,NNW,327,0.0,0.0,80,0.00,BKN,,0.00,7.0,WeatherDisplay:10.37,2013-07-08 03:06:00,
2013-07-08 05:11:00,63.2,56.9,30.21,NNW,327,0.0,0.0,80,0.00,BKN,,0.00,11.0,WeatherDisplay:10.37,2013-07-08 03:11:00,
2013-07-08 05:16:00,63.2,57.3,30.21,NNW,327,0.0,0.0,81,0.00,BKN,,0.00,12.0,WeatherDisplay:10.37,2013-07-08 03:16:00,
2013-07-08 05:21:00,63.0,57.1,30.21,NNW,327,0.0,0.0,81,0.00,BKN,,0.00,14.0,WeatherDisplay:10.37,2013-07-08 03:21:00,
2013-07-08 05:26:00,62.9,57.0,30.21,NNW,327,0.0,0.0,81,0.00,BKN,,0.00,16.0,WeatherDisplay:10.37,2013-07-08 03:26:00,
2013-07-08 05:31:00,62.8,57.2,30.21,NNW,327,0.0,1.0,82,0.00,BKN,,0.00,19.0,WeatherDisplay:10.37,2013-07-08 03:31:00,
2013-07-08 05:36:00,62.7,57.1,30.21,NNW,327,0.0,0.0,82,0.00,BKN,,0.00,28.0,WeatherDisplay:10.37,2013-07-08 03:36:00,
2013-07-08 05:41:00,62.7,57.1,30.21,NNW,327,0.0,0.0,82,0.00,BKN,,0.00,33.0,WeatherDisplay:10.37,2013-07-08 03:41:00,
2013-07-08 05:46:00,62.7,57.5,30.21,NNW,327,0.0,1.2,83,0.00,BKN,,0.00,39.0,WeatherDisplay:10.37,2013-07-08 03:46:00,
2013-07-08 05:51:00,62.7,57.5,30.21,NNW,327,0.3,1.0,83,0.00,BKN,,0.00,47.0,WeatherDisplay:10.37,2013-07-08 03:51:00,
2013-07-08 05:56:00,62.8,57.6,30.21,NNW,327,0.0,1.2,83,0.00,SCT,,0.00,56.0,WeatherDisplay:10.37,2013-07-08 03:56:00,
2013-07-08 06:01:00,62.8,57.6,30.21,NNW,327,0.0,1.2,83,0.00,SCT,,0.00,63.0,WeatherDisplay:10.37,2013-07-08 04:01:00,
2013-07-08 06:02:00,62.9,57.7,30.21,NNW,327,0.1,1.0,83,0.00,SCT,,0.00,65.0,WeatherDisplay:10.37,2013-07-08 04:02:00,
2013-07-08 06:03:00,62.9,57.7,30.21,NNW,327,0.5,2.0,83,0.00,SCT,,0.00,67.0,WeatherDisplay:10.37,2013-07-08 04:03:00,
2013-07-08 06:04:00,62.9,57.7,30.21,NNW,327,0.8,3.5,83,0.00,SCT,,0.00,67.0,WeatherDisplay:10.37,2013-07-08 04:04:00,
2013-07-08 06:05:00,62.9,57.7,30.21,NNW,327,1.0,3.0,83,0.00,SCT,,0.00,67.0,WeatherDisplay:10.37,2013-07-08 04:05:00,
2013-07-08 06:10:00,63.0,57.8,30.21,NNW,343,1.0,3.0,83,0.00,SCT,,0.00,77.0,WeatherDisplay:10.37,2013-07-08 04:10:00,
2013-07-08 06:15:00,63.2,57.9,30.21,North,360,0.5,3.5,83,0.00,SCT,,0.00,90.0,WeatherDisplay:10.37,2013-07-08 04:15:00,
2013-07-08 06:20:00,63.4,58.1,30.21,North,355,0.9,2.3,83,0.00,SCT,,0.00,100.0,WeatherDisplay:10.37,2013-07-08 04:20:00,
2013-07-08 06:25:00,63.9,58.3,30.21,North,360,1.1,2.3,82,0.00,SCT,,0.00,113.0,WeatherDisplay:10.37,2013-07-08 04:25:00,
2013-07-08 06:30:00,64.3,58.3,30.21,North,360,0.3,2.3,81,0.00,SCT,,0.00,120.0,WeatherDisplay:10.37,2013-07-08 04:30:00,
2013-07-08 06:35:00,64.7,58.4,30.21,North,360,1.1,3.5,80,0.00,SCT,,0.00,130.0,WeatherDisplay:10.37,2013-07-08 04:35:00,
2013-07-08 06:40:00,65.1,58.4,30.21,NNW,344,0.2,3.5,79,0.00,SCT,,0.00,142.0,WeatherDisplay:10.37,2013-07-08 04:40:00,
2013-07-08 06:45:00,65.4,58.7,30.21,NNW,344,0.2,1.2,79,0.00,FEW,,0.00,151.0,WeatherDisplay:10.37,2013-07-08 04:45:00,
2013-07-08 06:50:00,65.8,58.7,30.21,North,355,1.1,3.5,78,0.00,FEW,,0.00,144.0,WeatherDisplay:10.37,2013-07-08 04:50:00,
2013-07-08 06:55:00,66.0,58.6,30.21,North,355,0.4,1.2,77,0.00,SCT,,0.00,130.0,WeatherDisplay:10.37,2013-07-08 04:55:00,
2013-07-08 07:00:00,66.3,58.5,30.21,North,355,1.1,2.3,76,0.00,SCT,,0.00,84.0,WeatherDisplay:10.37,2013-07-08 05:00:00,
2013-07-08 07:05:00,66.6,58.8,30.21,NNW,346,0.6,3.5,76,0.00,SCT,,0.00,195.0,WeatherDisplay:10.37,2013-07-08 05:05:00,
2013-07-08 07:10:00,66.8,59.0,30.21,NW,323,1.3,3.5,76,0.00,SCT,,0.00,100.0,WeatherDisplay:10.37,2013-07-08 05:10:00,
2013-07-08 07:15:00,67.0,58.4,30.21,NNW,340,0.2,3.5,74,0.00,SCT,,0.00,83.0,WeatherDisplay:10.37,2013-07-08 05:15:00,
2013-07-08 07:20:00,67.2,58.2,30.21,North,355,2.3,7.0,73,0.00,BKN,,0.00,218.0,WeatherDisplay:10.37,2013-07-08 05:20:00,
2013-07-08 07:25:00,67.5,57.8,30.21,NNE,15,2.6,6.0,71,0.00,SCT,,0.00,111.0,WeatherDisplay:10.37,2013-07-08 05:25:00,
2013-07-08 07:30:00,67.8,56.9,30.22,North,355,1.6,5.0,68,0.00,SCT,,0.00,236.0,WeatherDisplay:10.37,2013-07-08 05:30:00,
2013-07-08 07:35:00,68.3,57.7,30.22,North,5,0.9,2.3,69,0.00,SCT,,0.00,151.0,WeatherDisplay:10.37,2013-07-08 05:35:00,
2013-07-08 07:40:00,68.7,57.7,30.22,NNW,329,2.8,4.6,68,0.00,SCT,,0.00,366.0,WeatherDisplay:10.37,2013-07-08 05:40:00,
2013-07-08 07:45:00,69.3,57.9,30.22,NW,315,0.6,3.0,67,0.00,FEW,,0.00,178.0,WeatherDisplay:10.37,2013-07-08 05:45:00,
2013-07-08 07:50:00,69.8,57.5,30.22,NW,322,1.1,3.5,65,0.00,CLR,,0.00,304.0,WeatherDisplay:10.37,2013-07-08 05:50:00,
2013-07-08 07:55:00,70.2,57.0,30.22,NNE,17,2.3,4.0,63,0.00,CLR,,0.00,355.0,WeatherDisplay:10.37,2013-07-08 05:55:00,
2013-07-08 08:00:00,70.7,57.5,30.22,NNW,344,2.3,3.5,63,0.00,CLR,,0.00,367.0,WeatherDisplay:10.37,2013-07-08 06:00:00,
2013-07-08 08:05:00,71.1,57.0,30.22,NNE,12,2.5,5.8,61,0.00,CLR,,0.00,367.0,WeatherDisplay:10.37,2013-07-08 06:05:00,
2013-07-08 08:10:00,71.3,57.6,30.22,North,5,1.0,4.6,62,0.00,CLR,,0.00,311.0,WeatherDisplay:10.37,2013-07-08 06:10:00,
2013-07-08 08:15:00,71.6,57.9,30.23,NNW,336,0.5,4.6,62,0.00,FEW,,0.00,158.0,WeatherDisplay:10.37,2013-07-08 06:15:00,
2013-07-08 08:20:00,71.6,57.0,30.23,ENE,67,5.1,7.0,60,0.00,SCT,,0.00,244.0,WeatherDisplay:10.37,2013-07-08 06:20:00,
2013-07-08 08:25:00,71.5,57.3,30.23,North,355,0.4,3.5,61,0.00,SCT,,0.00,441.0,WeatherDisplay:10.37,2013-07-08 06:25:00,
2013-07-08 08:30:00,71.7,57.1,30.23,NE,52,1.5,5.8,60,0.00,FEW,,0.00,434.0,WeatherDisplay:10.37,2013-07-08 06:30:00,
2013-07-08 08:35:00,71.8,56.2,30.23,NE,42,3.7,6.0,58,0.00,CLR,,0.00,353.0,WeatherDisplay:10.37,2013-07-08 06:35:00,
2013-07-08 08:40:00,72.0,55.9,30.23,NNW,343,2.9,8.1,57,0.00,FEW,,0.00,462.0,WeatherDisplay:10.37,2013-07-08 06:40:00,
2013-07-08 08:45:00,72.3,56.7,30.23,North,360,3.4,6.9,58,0.00,FEW,,0.00,192.0,WeatherDisplay:10.37,2013-07-08 06:45:00,
2013-07-08 08:50:00,72.4,56.3,30.23,NE,48,3.7,8.1,57,0.00,SCT,,0.00,209.0,WeatherDisplay:10.37,2013-07-08 06:50:00,
2013-07-08 08:55:00,72.6,57.4,30.23,NNE,32,0.9,4.6,59,0.00,SCT,,0.00,253.0,WeatherDisplay:10.37,2013-07-08 06:55:00,
2013-07-08 09:00:00,72.8,56.7,30.23,North,5,3.6,5.8,57,0.00,SCT,,0.00,483.0,WeatherDisplay:10.37,2013-07-08 07:00:00,
2013-07-08 09:05:00,73.0,56.4,30.23,North,5,3.7,6.9,56,0.00,FEW,,0.00,209.0,WeatherDisplay:10.37,2013-07-08 07:05:00,
2013-07-08 09:10:00,73.0,57.3,30.23,NNE,18,3.3,6.0,58,0.00,SCT,,0.00,526.0,WeatherDisplay:10.37,2013-07-08 07:10:00,
2013-07-08 09:15:00,73.3,56.2,30.23,NE,44,2.3,6.9,55,0.00,SCT,,0.00,211.0,WeatherDisplay:10.37,2013-07-08 07:15:00,
2013-07-08 09:20:00,73.4,56.2,30.23,North,11,1.9,4.0,55,0.00,SCT,,0.00,255.0,WeatherDisplay:10.37,2013-07-08 07:20:00,
2013-07-08 09:25:00,73.5,56.3,30.23,NW,319,2.2,4.0,55,0.00,BKN,,0.00,570.0,WeatherDisplay:10.37,2013-07-08 07:25:00,
2013-07-08 09:30:00,73.9,56.7,30.23,North,355,1.6,4.6,55,0.00,SCT,,0.00,469.0,WeatherDisplay:10.37,2013-07-08 07:30:00,
2013-07-08 09:35:00,74.2,56.5,30.23,North,355,1.5,5.8,54,0.00,FEW,,0.00,352.0,WeatherDisplay:10.37,2013-07-08 07:35:00,
2013-07-08 09:40:00,74.3,57.1,30.23,NE,56,3.0,6.9,55,0.00,SCT,,0.00,334.0,WeatherDisplay:10.37,2013-07-08 07:40:00,
2013-07-08 09:45:00,74.6,56.3,30.23,North,349,2.6,8.1,53,0.00,SCT,,0.00,334.0,WeatherDisplay:10.37,2013-07-08 07:45:00,
2013-07-08 09:50:00,75.1,57.3,30.23,East,84,1.1,3.5,54,0.00,SCT,,0.00,659.0,WeatherDisplay:10.37,2013-07-08 07:50:00,
2013-07-08 09:55:00,75.6,55.6,30.24,North,355,4.8,7.0,50,0.00,CLR,,0.00,555.0,WeatherDisplay:10.37,2013-07-08 07:55:00,
2013-07-08 10:00:00,75.7,56.3,30.24,North,10,2.6,6.9,51,0.00,FEW,,0.00,682.0,WeatherDisplay:10.37,2013-07-08 08:00:00,
2013-07-08 10:05:00,75.7,55.7,30.24,NNW,347,1.9,4.6,50,0.00,CLR,,0.00,689.0,WeatherDisplay:10.37,2013-07-08 08:05:00,
2013-07-08 10:10:00,76.2,56.2,30.24,NNE,28,0.4,3.5,50,0.00,CLR,,0.00,780.0,WeatherDisplay:10.37,2013-07-08 08:10:00,
2013-07-08 10:15:00,76.6,56.6,30.24,East,90,3.6,8.1,50,0.00,CLR,,0.00,371.0,WeatherDisplay:10.37,2013-07-08 08:15:00,
2013-07-08 10:20:00,76.4,55.8,30.24,NNE,20,3.1,4.6,49,0.00,FEW,,0.00,452.0,WeatherDisplay:10.37,2013-07-08 08:20:00,
2013-07-08 10:25:00,76.2,56.2,30.24,North,360,1.4,5.8,50,0.00,SCT,,0.00,360.0,WeatherDisplay:10.37,2013-07-08 08:25:00,
2013-07-08 10:30:00,76.2,55.6,30.24,NE,42,2.2,5.8,49,0.00,SCT,,0.00,390.0,WeatherDisplay:10.37,2013-07-08 08:30:00,
2013-07-08 10:35:00,76.0,55.5,30.24,NNW,331,2.2,5.8,49,0.00,SCT,,0.00,355.0,WeatherDisplay:10.37,2013-07-08 08:35:00,
2013-07-08 10:40:00,76.1,55.5,30.24,NNW,348,3.2,5.0,49,0.00,SCT,,0.00,353.0,WeatherDisplay:10.37,2013-07-08 08:40:00,
2013-07-08 10:45:00,76.0,54.9,30.24,NNW,344,1.7,4.6,48,0.00,SCT,,0.00,432.0,WeatherDisplay:10.37,2013-07-08 08:45:00,
2013-07-08 10:50:00,76.1,55.5,30.24,North,360,1.6,5.0,49,0.00,SCT,,0.00,431.0,WeatherDisplay:10.37,2013-07-08 08:50:00,
2013-07-08 10:55:00,76.3,57.4,30.24,NE,49,3.5,5.0,52,0.00,SCT,,0.00,445.0,WeatherDisplay:10.37,2013-07-08 08:55:00,
2013-07-08 11:00:00,76.9,55.7,30.24,NE,47,1.6,3.5,48,0.00,SCT,,0.00,445.0,WeatherDisplay:10.37,2013-07-08 09:00:00,
2013-07-08 11:05:00,76.9,56.3,30.24,NE,49,0.0,1.2,49,0.00,SCT,,0.00,443.0,WeatherDisplay:10.37,2013-07-08 09:05:00,
2013-07-08 11:10:00,77.1,55.9,30.24,NE,49,0.4,2.3,48,0.00,SCT,,0.00,388.0,WeatherDisplay:10.37,2013-07-08 09:10:00,
2013-07-08 11:15:00,77.2,56.6,30.24,NNW,329,2.1,5.0,49,0.00,SCT,,0.00,482.0,WeatherDisplay:10.37,2013-07-08 09:15:00,
2013-07-08 11:20:00,77.3,56.6,30.24,North,355,1.6,3.5,49,0.00,SCT,,0.00,390.0,WeatherDisplay:10.37,2013-07-08 09:20:00,
2013-07-08 11:25:00,77.1,56.5,30.24,West,269,1.0,3.5,49,0.00,SCT,,0.00,527.0,WeatherDisplay:10.37,2013-07-08 09:25:00,
2013-07-08 11:30:00,77.8,57.1,30.23,West,266,0.1,1.2,49,0.00,SCT,,0.00,673.0,WeatherDisplay:10.37,2013-07-08 09:30:00,
2013-07-08 11:35:00,77.9,57.2,30.23,WNW,294,1.9,4.0,49,0.00,SCT,,0.00,434.0,WeatherDisplay:10.37,2013-07-08 09:35:00,
2013-07-08 11:40:00,78.5,57.7,30.23,NNW,344,3.0,5.0,49,0.00,FEW,,0.00,911.0,WeatherDisplay:10.37,2013-07-08 09:40:00,
2013-07-08 11:45:00,78.8,58.0,30.23,NW,321,1.7,4.0,49,0.00,FEW,,0.00,703.0,WeatherDisplay:10.37,2013-07-08 09:45:00,
2013-07-08 11:50:00,79.0,58.2,30.23,NW,325,0.5,3.0,49,0.00,CLR,,0.00,814.0,WeatherDisplay:10.37,2013-07-08 09:50:00,
2013-07-08 11:55:00,79.3,57.3,30.23,WNW,287,1.4,4.6,47,0.00,FEW,,0.00,795.0,WeatherDisplay:10.37,2013-07-08 09:55:00,
2013-07-08 12:00:00,79.5,58.7,30.23,NW,309,2.2,3.5,49,0.00,FEW,,0.00,693.0,WeatherDisplay:10.37,2013-07-08 10:00:00,
2013-07-08 12:05:00,79.4,56.8,30.23,NNW,333,4.8,8.1,46,0.00,SCT,,0.00,250.0,WeatherDisplay:10.37,2013-07-08 10:05:00,
2013-07-08 12:10:00,79.1,57.7,30.23,NW,325,2.6,5.8,48,0.00,SCT,,0.00,348.0,WeatherDisplay:10.37,2013-07-08 10:10:00,
2013-07-08 12:15:00,79.5,58.1,30.23,NNW,328,2.7,8.1,48,0.00,BKN,,0.00,348.0,WeatherDisplay:10.37,2013-07-08 10:15:00,
2013-07-08 12:20:00,80.0,59.1,30.23,NNE,28,1.0,5.8,49,0.00,SCT,,0.00,503.0,WeatherDisplay:10.37,2013-07-08 10:20:00,
2013-07-08 12:25:00,80.3,58.2,30.23,NE,44,3.1,7.0,47,0.00,SCT,,0.00,714.0,WeatherDisplay:10.37,2013-07-08 10:25:00,
2013-07-08 12:30:00,80.3,58.2,30.23,NE,47,1.9,5.0,47,0.00,FEW,,0.00,807.0,WeatherDisplay:10.37,2013-07-08 10:30:00,
2013-07-08 12:35:00,80.1,58.0,30.23,West,281,0.2,3.5,47,0.00,CLR,,0.00,874.0,WeatherDisplay:10.37,2013-07-08 10:35:00,
2013-07-08 12:40:00,80.1,59.2,30.23,North,9,3.0,7.0,49,0.00,CLR,,0.00,926.0,WeatherDisplay:10.37,2013-07-08 10:40:00,
2013-07-08 12:45:00,80.5,58.4,30.23,NE,36,5.3,10.4,47,0.00,CLR,,0.00,925.0,WeatherDisplay:10.37,2013-07-08 10:45:00,
2013-07-08 12:50:00,81.1,58.4,30.22,NE,51,2.8,6.0,46,0.00,CLR,,0.00,914.0,WeatherDisplay:10.37,2013-07-08 10:50:00,
2013-07-08 12:55:00,81.2,58.5,30.22,NNE,21,4.6,9.2,46,0.00,CLR,,0.00,285.0,WeatherDisplay:10.37,2013-07-08 10:55:00,
2013-07-08 13:00:00,81.3,58.5,30.22,NNE,26,2.3,8.1,46,0.00,FEW,,0.00,912.0,WeatherDisplay:10.37,2013-07-08 11:00:00,
2013-07-08 13:05:00,81.5,58.7,30.22,NNW,336,8.3,12.0,46,0.00,CLR,,0.00,953.0,WeatherDisplay:10.37,2013-07-08 11:05:00,
2013-07-08 13:10:00,80.8,58.7,30.22,North,351,3.3,6.0,47,0.00,CLR,,0.00,316.0,WeatherDisplay:10.37,2013-07-08 11:10:00,
2013-07-08 13:15:00,80.7,59.2,30.22,NE,40,6.5,10.0,48,0.00,SCT,,0.00,925.0,WeatherDisplay:10.37,2013-07-08 11:15:00,
2013-07-08 13:20:00,80.9,59.4,30.22,North,355,3.9,9.2,48,0.00,SCT,,0.00,485.0,WeatherDisplay:10.37,2013-07-08 11:20:00,
2013-07-08 13:25:00,81.1,59.0,30.22,North,355,4.6,8.1,47,0.00,SCT,,0.00,882.0,WeatherDisplay:10.37,2013-07-08 11:25:00,
2013-07-08 13:30:00,81.3,59.1,30.21,ENE,60,2.6,6.9,47,0.00,FEW,,0.00,902.0,WeatherDisplay:10.37,2013-07-08 11:30:00,
2013-07-08 13:35:00,81.5,59.3,30.21,NNW,333,7.6,13.0,47,0.00,CLR,,0.00,935.0,WeatherDisplay:10.37,2013-07-08 11:35:00,
2013-07-08 13:40:00,81.8,59.0,30.21,NNE,14,3.7,8.1,46,0.00,CLR,,0.00,969.0,WeatherDisplay:10.37,2013-07-08 11:40:00,
2013-07-08 13:45:00,81.6,60.6,30.21,NNW,339,1.2,8.1,49,0.00,CLR,,0.00,916.0,WeatherDisplay:10.37,2013-07-08 11:45:00,
2013-07-08 13:50:00,81.9,60.3,30.21,NNE,21,3.4,9.2,48,0.00,FEW,,0.00,253.0,WeatherDisplay:10.37,2013-07-08 11:50:00,
2013-07-08 13:55:00,81.5,59.3,30.21,NNE,26,3.8,10.4,47,0.00,SCT,,0.00,244.0,WeatherDisplay:10.37,2013-07-08 11:55:00,
2013-07-08 14:00:00,80.9,58.8,30.21,NNE,17,4.1,6.9,47,0.00,BKN,,0.00,248.0,WeatherDisplay:10.37,2013-07-08 12:00:00,
2013-07-08 14:05:00,80.5,58.4,30.21,NNW,346,1.8,4.6,47,0.00,BKN,,0.00,819.0,WeatherDisplay:10.37,2013-07-08 12:05:00,
2013-07-08 14:10:00,80.7,59.2,30.20,NW,320,0.8,3.0,48,0.00,SCT,,0.00,830.0,WeatherDisplay:10.37,2013-07-08 12:10:00,
2013-07-08 14:15:00,81.3,59.1,30.20,West,280,3.5,6.0,47,0.00,CLR,,0.00,833.0,WeatherDisplay:10.37,2013-07-08 12:15:00,
2013-07-08 14:20:00,81.3,59.7,30.20,NW,325,4.4,8.1,48,0.00,CLR,,0.00,297.0,WeatherDisplay:10.37,2013-07-08 12:20:00,
2013-07-08 14:25:00,81.6,59.4,30.20,North,11,5.2,8.0,47,0.00,SCT,,0.00,851.0,WeatherDisplay:10.37,2013-07-08 12:25:00,
2013-07-08 14:30:00,81.6,59.4,30.20,NW,304,2.8,5.8,47,0.00,SCT,,0.00,369.0,WeatherDisplay:10.37,2013-07-08 12:30:00,
2013-07-08 14:35:00,81.5,59.3,30.19,NNW,344,6.8,11.5,47,0.00,SCT,,0.00,765.0,WeatherDisplay:10.37,2013-07-08 12:35:00,
2013-07-08 14:40:00,81.5,58.7,30.19,NNW,348,2.2,5.0,46,0.00,FEW,,0.00,779.0,WeatherDisplay:10.37,2013-07-08 12:40:00,
2013-07-08 14:45:00,81.5,59.3,30.20,NNE,12,4.6,10.0,47,0.00,CLR,,0.00,768.0,WeatherDisplay:10.37,2013-07-08 12:45:00,
2013-07-08 14:50:00,81.6,58.8,30.19,WNW,301,3.8,7.0,46,0.00,FEW,,0.00,765.0,WeatherDisplay:10.37,2013-07-08 12:50:00,
2013-07-08 14:55:00,81.8,61.3,30.19,WNW,286,1.1,4.6,50,0.00,FEW,,0.00,745.0,WeatherDisplay:10.37,2013-07-08 12:55:00,
2013-07-08 15:00:00,82.1,59.3,30.19,North,360,4.7,9.0,46,0.00,CLR,,0.00,761.0,WeatherDisplay:10.37,2013-07-08 13:00:00,
2013-07-08 15:05:00,82.4,59.5,30.19,North,355,6.4,9.2,46,0.00,CLR,,0.00,758.0,WeatherDisplay:10.37,2013-07-08 13:05:00,
2013-07-08 15:10:00,82.5,59.0,30.19,NW,315,3.5,7.0,45,0.00,CLR,,0.00,735.0,WeatherDisplay:10.37,2013-07-08 13:10:00,
2013-07-08 15:15:00,82.6,58.5,30.19,North,360,3.1,5.8,44,0.00,CLR,,0.00,733.0,WeatherDisplay:10.37,2013-07-08 13:15:00,
2013-07-08 15:20:00,82.4,57.7,30.19,WNW,302,4.6,7.0,43,0.00,CLR,,0.00,717.0,WeatherDisplay:10.37,2013-07-08 13:20:00,
2013-07-08 15:25:00,82.2,58.7,30.18,NE,34,4.8,9.0,45,0.00,CLR,,0.00,717.0,WeatherDisplay:10.37,2013-07-08 13:25:00,
2013-07-08 15:30:00,82.8,59.3,30.18,NE,34,3.6,11.5,45,0.00,CLR,,0.00,717.0,WeatherDisplay:10.37,2013-07-08 13:30:00,
2013-07-08 15:35:00,83.1,58.9,30.18,NE,34,2.6,8.1,44,0.00,CLR,,0.00,680.0,WeatherDisplay:10.37,2013-07-08 13:35:00,
2013-07-08 15:40:00,83.1,60.2,30.18,NNE,31,2.6,7.0,46,0.00,CLR,,0.00,657.0,WeatherDisplay:10.37,2013-07-08 13:40:00,
2013-07-08 15:45:00,83.2,59.0,30.18,ENE,62,2.5,8.1,44,0.00,CLR,,0.00,689.0,WeatherDisplay:10.37,2013-07-08 13:45:00,
2013-07-08 15:50:00,83.1,59.6,30.18,NNW,331,5.3,9.2,45,0.00,CLR,,0.00,708.0,WeatherDisplay:10.37,2013-07-08 13:50:00,
2013-07-08 15:55:00,83.0,60.1,30.18,NE,40,4.3,8.1,46,0.00,CLR,,0.00,705.0,WeatherDisplay:10.37,2013-07-08 13:55:00,
2013-07-08 16:00:00,82.5,59.6,30.18,NNW,338,4.6,9.0,46,0.00,CLR,,0.00,378.0,WeatherDisplay:10.37,2013-07-08 14:00:00,
2013-07-08 16:05:00,82.4,59.5,30.18,North,355,3.5,10.0,46,0.00,FEW,,0.00,613.0,WeatherDisplay:10.37,2013-07-08 14:05:00,
2013-07-08 16:10:00,82.6,59.7,30.18,North,360,3.8,8.0,46,0.00,CLR,,0.00,635.0,WeatherDisplay:10.37,2013-07-08 14:10:00,
2013-07-08 16:15:00,83.1,59.6,30.18,North,360,3.4,5.0,45,0.00,CLR,,0.00,633.0,WeatherDisplay:10.37,2013-07-08 14:15:00,
2013-07-08 16:20:00,83.1,59.6,30.17,North,5,3.8,6.0,45,0.00,CLR,,0.00,162.0,WeatherDisplay:10.37,2013-07-08 14:20:00,
2013-07-08 16:25:00,82.7,59.2,30.18,North,360,3.2,7.0,45,0.00,SCT,,0.00,633.0,WeatherDisplay:10.37,2013-07-08 14:25:00,
2013-07-08 16:30:00,82.6,59.1,30.17,NE,53,3.8,6.0,45,0.00,FEW,,0.00,617.0,WeatherDisplay:10.37,2013-07-08 14:30:00,
2013-07-08 16:35:00,82.8,59.9,30.17,North,355,4.2,7.0,46,0.00,CLR,,0.00,577.0,WeatherDisplay:10.37,2013-07-08 14:35:00,
2013-07-08 16:40:00,83.1,59.6,30.17,North,360,4.6,9.2,45,0.00,CLR,,0.00,113.0,WeatherDisplay:10.37,2013-07-08 14:40:00,
2013-07-08 16:45:00,82.8,60.5,30.17,North,355,4.8,9.0,47,0.00,FEW,,0.00,504.0,WeatherDisplay:10.37,2013-07-08 14:45:00,
2013-07-08 16:50:00,82.8,59.3,30.17,ENE,67,5.1,7.0,45,0.00,FEW,,0.00,482.0,WeatherDisplay:10.37,2013-07-08 14:50:00,
2013-07-08 16:55:00,82.7,59.8,30.17,NNE,19,1.9,6.0,46,0.00,CLR,,0.00,489.0,WeatherDisplay:10.37,2013-07-08 14:55:00,
2013-07-08 17:00:00,83.1,60.2,30.17,NNE,24,4.7,8.0,46,0.00,CLR,,0.00,501.0,WeatherDisplay:10.37,2013-07-08 15:00:00,
2013-07-08 17:05:00,83.3,60.4,30.17,NNE,25,2.4,8.0,46,0.00,CLR,,0.00,475.0,WeatherDisplay:10.37,2013-07-08 15:05:00,
2013-07-08 17:10:00,83.3,59.7,30.17,North,11,4.7,10.0,45,0.00,CLR,,0.00,443.0,WeatherDisplay:10.37,2013-07-08 15:10:00,
2013-07-08 17:15:00,83.0,59.5,30.17,North,9,3.0,6.0,45,0.00,CLR,,0.00,431.0,WeatherDisplay:10.37,2013-07-08 15:15:00,
2013-07-08 17:20:00,82.8,59.3,30.17,North,355,3.9,7.0,45,0.00,CLR,,0.00,411.0,WeatherDisplay:10.37,2013-07-08 15:20:00,
2013-07-08 17:25:00,82.8,59.3,30.17,NE,49,3.8,5.8,45,0.00,CLR,,0.00,109.0,WeatherDisplay:10.37,2013-07-08 15:25:00,
2013-07-08 17:30:00,82.4,59.5,30.17,NE,46,2.4,8.1,46,0.00,SCT,,0.00,396.0,WeatherDisplay:10.37,2013-07-08 15:30:00,
2013-07-08 17:35:00,82.5,59.0,30.17,NE,34,4.7,11.5,45,0.00,FEW,,0.00,376.0,WeatherDisplay:10.37,2013-07-08 15:35:00,
2013-07-08 17:40:00,82.6,59.1,30.17,NNE,14,4.1,6.9,45,0.00,CLR,,0.00,359.0,WeatherDisplay:10.37,2013-07-08 15:40:00,
2013-07-08 17:45:00,82.7,58.6,30.17,North,350,2.6,5.8,44,0.00,CLR,,0.00,336.0,WeatherDisplay:10.37,2013-07-08 15:45:00,
2013-07-08 17:50:00,82.7,57.3,30.16,North,360,3.9,7.0,42,0.00,CLR,,0.00,339.0,WeatherDisplay:10.37,2013-07-08 15:50:00,
2013-07-08 17:55:00,82.6,56.5,30.16,North,355,3.7,8.1,41,0.00,CLR,,0.00,322.0,WeatherDisplay:10.37,2013-07-08 15:55:00,
2013-07-08 18:00:00,82.8,55.3,30.16,NE,49,4.6,7.0,39,0.00,CLR,,0.00,308.0,WeatherDisplay:10.37,2013-07-08 16:00:00,
2013-07-08 18:05:00,82.8,54.6,30.16,NE,42,3.8,8.1,38,0.00,CLR,,0.00,297.0,WeatherDisplay:10.37,2013-07-08 16:05:00,
2013-07-08 18:10:00,82.7,54.5,30.16,ENE,57,2.3,4.6,38,0.00,CLR,,0.00,292.0,WeatherDisplay:10.37,2013-07-08 16:10:00,
2013-07-08 18:15:00,82.7,55.2,30.16,NNE,13,4.7,9.0,39,0.00,CLR,,0.00,279.0,WeatherDisplay:10.37,2013-07-08 16:15:00,
2013-07-08 18:21:00,82.5,55.7,30.16,NE,35,2.9,5.0,40,0.00,CLR,,0.00,267.0,WeatherDisplay:10.37,2013-07-08 16:21:00,
2013-07-08 18:26:00,82.1,56.7,30.16,ENE,65,1.9,5.0,42,0.00,CLR,,0.00,251.0,WeatherDisplay:10.37,2013-07-08 16:26:00,
2013-07-08 18:31:00,81.7,56.4,30.16,NE,37,3.6,6.9,42,0.00,CLR,,0.00,239.0,WeatherDisplay:10.37,2013-07-08 16:31:00,
2013-07-08 18:36:00,81.4,56.1,30.16,ENE,76,1.7,4.0,42,0.00,CLR,,0.00,230.0,WeatherDisplay:10.37,2013-07-08 16:36:00,
2013-07-08 18:41:00,81.2,55.9,30.16,ENE,59,3.5,9.0,42,0.00,CLR,,0.00,220.0,WeatherDisplay:10.37,2013-07-08 16:41:00,
2013-07-08 18:46:00,81.0,55.7,30.16,ENE,76,0.6,2.0,42,0.00,CLR,,0.00,211.0,WeatherDisplay:10.37,2013-07-08 16:46:00,
2013-07-08 18:52:00,80.9,55.7,30.16,ENE,71,3.4,8.1,42,0.00,CLR,,0.00,197.0,WeatherDisplay:10.37,2013-07-08 16:52:00,
2013-07-08 18:57:00,80.6,55.4,30.16,NE,39,2.1,6.9,42,0.00,CLR,,0.00,181.0,WeatherDisplay:10.37,2013-07-08 16:57:00,
2013-07-08 19:02:00,80.5,54.6,30.16,ENE,69,1.8,4.6,41,0.00,CLR,,0.00,167.0,WeatherDisplay:10.37,2013-07-08 17:02:00,
2013-07-08 19:07:00,80.4,54.5,30.16,NE,47,3.2,8.0,41,0.00,CLR,,0.00,153.0,WeatherDisplay:10.37,2013-07-08 17:07:00,
2013-07-08 19:12:00,80.2,55.0,30.16,NE,45,0.5,4.6,42,0.00,CLR,,0.00,139.0,WeatherDisplay:10.37,2013-07-08 17:12:00,
2013-07-08 19:17:00,80.0,55.5,30.16,NE,54,0.7,4.0,43,0.00,CLR,,0.00,125.0,WeatherDisplay:10.37,2013-07-08 17:17:00,
2013-07-08 19:22:00,79.9,55.4,30.16,NE,52,3.1,7.0,43,0.00,CLR,,0.00,113.0,WeatherDisplay:10.37,2013-07-08 17:22:00,
2013-07-08 19:27:00,79.7,55.2,30.16,NNE,26,0.3,3.5,43,0.00,CLR,,0.00,104.0,WeatherDisplay:10.37,2013-07-08 17:27:00,
2013-07-08 19:32:00,79.5,55.7,30.16,ENE,72,1.8,3.5,44,0.00,FEW,,0.00,90.0,WeatherDisplay:10.37,2013-07-08 17:32:00,
2013-07-08 19:37:00,79.4,55.6,30.16,NNE,24,1.9,5.0,44,0.00,FEW,,0.00,77.0,WeatherDisplay:10.37,2013-07-08 17:37:00,
2013-07-08 19:42:00,79.2,55.4,30.16,NNE,27,2.0,4.0,44,0.00,FEW,,0.00,69.0,WeatherDisplay:10.37,2013-07-08 17:42:00,
2013-07-08 19:47:00,79.1,55.3,30.16,NNE,28,0.3,2.0,44,0.00,FEW,,0.00,56.0,WeatherDisplay:10.37,2013-07-08 17:47:00,
2013-07-08 19:54:00,79.0,55.8,30.16,NNE,29,0.4,3.5,45,0.00,FEW,,0.00,44.0,WeatherDisplay:10.37,2013-07-08 17:54:00,
2013-07-08 19:59:00,78.8,56.3,30.16,NE,42,0.6,2.3,46,0.00,FEW,,0.00,32.0,WeatherDisplay:10.37,2013-07-08 17:59:00,
2013-07-08 20:05:00,78.6,56.1,30.16,NE,36,0.0,2.0,46,0.00,FEW,,0.00,21.0,WeatherDisplay:10.37,2013-07-08 18:05:00,
2013-07-08 20:10:00,78.4,56.5,30.16,NE,42,0.0,2.0,47,0.00,FEW,,0.00,21.0,WeatherDisplay:10.37,2013-07-08 18:10:00,
2013-07-08 20:16:00,78.1,56.8,30.16,NE,41,0.0,1.2,48,0.00,FEW,,0.00,16.0,WeatherDisplay:10.37,2013-07-08 18:16:00,
2013-07-08 20:22:00,77.7,57.6,30.16,NE,41,0.1,1.0,50,0.00,FEW,,0.00,11.0,WeatherDisplay:10.37,2013-07-08 18:22:00,
2013-07-08 20:28:00,77.2,57.1,30.16,NE,41,0.0,1.2,50,0.00,FEW,,0.00,9.0,WeatherDisplay:10.37,2013-07-08 18:28:00,
2013-07-08 20:33:00,76.7,57.2,30.17,NE,42,0.1,1.2,51,0.00,FEW,,0.00,7.0,WeatherDisplay:10.37,2013-07-08 18:33:00,
2013-07-08 20:38:00,76.3,57.4,30.17,NE,43,0.1,1.2,52,0.00,FEW,,0.00,5.0,WeatherDisplay:10.37,2013-07-08 18:38:00,
2013-07-08 20:43:00,75.8,57.4,30.17,NE,56,0.8,2.0,53,0.00,FEW,,0.00,0.0,WeatherDisplay:10.37,2013-07-08 18:43:00,
2013-07-08 20:50:00,75.2,56.9,30.17,ENE,62,1.0,2.0,53,0.00,FEW,,0.00,0.0,WeatherDisplay:10.37,2013-07-08 18:50:00,
2013-07-08 20:56:00,74.6,56.9,30.17,ENE,69,0.0,1.2,54,0.00,FEW,,0.00,0.0,WeatherDisplay:10.37,2013-07-08 18:56:00,
2013-07-08 21:03:00,74.1,56.9,30.17,ENE,69,0.2,1.2,55,0.00,FEW,,0.00,0.0,WeatherDisplay:10.37,2013-07-08 19:03:00,
2013-07-08 21:09:00,73.7,57.0,30.17,ENE,69,0.3,2.3,56,0.00,FEW,,0.00,0.0,WeatherDisplay:10.37,2013-07-08 19:09:00,
2013-07-08 21:15:00,73.3,57.1,30.18,ENE,69,0.6,2.3,57,0.00,FEW,,0.00,0.0,WeatherDisplay:10.37,2013-07-08 19:15:00,
2013-07-08 21:20:00,73.0,56.9,30.18,ENE,69,0.9,3.5,57,0.00,FEW,,0.00,0.0,WeatherDisplay:10.37,2013-07-08 19:20:00,
2013-07-08 21:26:00,72.7,57.1,30.18,ENE,69,0.7,2.3,58,0.00,FEW,,0.00,0.0,WeatherDisplay:10.37,2013-07-08 19:26:00,
2013-07-08 21:31:00,72.4,57.3,30.18,ENE,69,0.1,1.2,59,0.00,FEW,,0.00,0.0,WeatherDisplay:10.37,2013-07-08 19:31:00,
2013-07-08 21:36:00,72.2,57.1,30.18,ENE,69,0.1,1.2,59,0.00,FEW,,0.00,0.0,WeatherDisplay:10.37,2013-07-08 19:36:00,
2013-07-08 21:41:00,71.9,57.3,30.18,ENE,69,0.0,1.2,60,0.00,FEW,,0.00,0.0,WeatherDisplay:10.37,2013-07-08 19:41:00,
2013-07-08 21:46:00,71.7,57.1,30.19,ENE,69,0.7,2.3,60,0.00,FEW,,0.00,0.0,WeatherDisplay:10.37,2013-07-08 19:46:00,
2013-07-08 21:51:00,71.5,57.3,30.18,ENE,69,0.8,2.3,61,0.00,FEW,,0.00,0.0,WeatherDisplay:10.37,2013-07-08 19:51:00,
2013-07-08 21:56:00,71.4,57.2,30.19,ENE,69,0.6,2.0,61,0.00,FEW,,0.00,0.0,WeatherDisplay:10.37,2013-07-08 19:56:00,
2013-07-08 22:01:00,71.3,57.2,30.19,ENE,69,0.3,1.2,61,0.00,FEW,,0.00,0.0,WeatherDisplay:10.37,2013-07-08 20:01:00,
2013-07-08 22:06:00,71.2,57.5,30.19,ENE,70,0.5,2.3,62,0.00,FEW,,0.00,0.0,WeatherDisplay:10.37,2013-07-08 20:06:00,
2013-07-08 22:11:00,71.1,57.4,30.19,East,92,1.2,2.0,62,0.00,FEW,,0.00,0.0,WeatherDisplay:10.37,2013-07-08 20:11:00,
2013-07-08 22:17:00,71.0,57.3,30.19,ESE,117,1.9,5.0,62,0.00,FEW,,0.00,0.0,WeatherDisplay:10.37,2013-07-08 20:17:00,
2013-07-08 22:22:00,71.0,57.3,30.19,East,96,0.8,4.6,62,0.00,FEW,,0.00,0.0,WeatherDisplay:10.37,2013-07-08 20:22:00,
2013-07-08 22:29:00,71.1,57.4,30.19,East,82,1.4,6.0,62,0.00,FEW,,0.00,0.0,WeatherDisplay:10.37,2013-07-08 20:29:00,
2013-07-08 22:34:00,71.2,57.1,30.20,ESE,108,3.4,5.8,61,0.00,FEW,,0.00,0.0,WeatherDisplay:10.37,2013-07-08 20:34:00,
2013-07-08 22:40:00,71.4,57.2,30.19,ESE,105,3.0,7.0,61,0.00,FEW,,0.00,0.0,WeatherDisplay:10.37,2013-07-08 20:40:00,
2013-07-08 22:47:00,71.7,57.5,30.19,East,97,2.0,6.0,61,0.00,FEW,,0.00,0.0,WeatherDisplay:10.37,2013-07-08 20:47:00,
2013-07-08 22:53:00,71.8,57.6,30.19,ENE,70,2.3,5.0,61,0.00,FEW,,0.00,0.0,WeatherDisplay:10.37,2013-07-08 20:53:00,
2013-07-08 22:58:00,71.8,57.6,30.19,East,82,1.6,5.0,61,0.00,FEW,,0.00,0.0,WeatherDisplay:10.37,2013-07-08 20:58:00,
2013-07-08 23:03:00,71.8,57.6,30.19,East,101,3.2,6.0,61,0.00,FEW,,0.00,0.0,WeatherDisplay:10.37,2013-07-08 21:03:00,
2013-07-08 23:10:00,71.7,58.0,30.19,ESE,107,2.4,6.0,62,0.00,FEW,,0.00,0.0,WeatherDisplay:10.37,2013-07-08 21:10:00,
2013-07-08 23:18:00,71.4,57.7,30.19,ESE,105,2.4,7.0,62,0.00,FEW,,0.00,0.0,WeatherDisplay:10.37,2013-07-08 21:18:00,
2013-07-08 23:23:00,71.3,57.6,30.19,East,96,1.4,3.5,62,0.00,FEW,,0.00,0.0,WeatherDisplay:10.37,2013-07-08 21:23:00,
2013-07-08 23:29:00,71.2,57.5,30.19,East,94,3.4,7.0,62,0.00,FEW,,0.00,0.0,WeatherDisplay:10.37,2013-07-08 21:29:00,
2013-07-08 23:34:00,71.1,57.4,30.19,ENE,64,2.9,9.0,62,0.00,FEW,,0.00,0.0,WeatherDisplay:10.37,2013-07-08 21:34:00,
2013-07-08 23:41:00,70.9,57.7,30.19,ENE,69,2.2,6.0,63,0.00,FEW,,0.00,0.0,WeatherDisplay:10.37,2013-07-08 21:41:00,
2013-07-08 23:46:00,70.8,57.6,30.19,East,84,2.2,5.0,63,0.00,FEW,,0.00,0.0,WeatherDisplay:10.37,2013-07-08 21:46:00,
2013-07-08 23:51:00,70.6,57.4,30.19,East,94,0.9,5.8,63,0.00,FEW,,0.00,0.0,WeatherDisplay:10.37,2013-07-08 21:51:00,
2013-07-08 23:56:00,70.4,57.2,30.19,ENE,71,2.0,4.6,63,0.00,FEW,,0.00,0.0,WeatherDisplay:10.37,2013-07-08 21:56:00,